Flag for Switzerland Weather past 2 weeks in Uster, Zurich, Switzerland

Now
47 °F

Cool.


Feels Like: 47 °F
Forecast: 36 / 65 °F
Wind: 1 mph from East

Location: Zurich Town / Ville.

Current Time: Apr 22, 2015 at 5:57:22 AM

Latest Report: Apr 22, 2015 at 4:00 AM


Visibility: N/A

Pressure: 30.34 "Hg

Humidity: 63%

Dew point: 35 °F

Location of UsterLocation

Historic Weather in Uster — Graph

°F

Uster temperature yesterday

Maximum temperature yesterday: 67 °F (at 6:00 PM)
Minimum temperature yesterday: 44 °F (at 5:00 AM)
Average temperature yesterday: 56 °F

Past Weeks' High & Low Weather Summary

 TemperatureHumidityPressure
High72 °F (Apr 15, 5:00 PM)96% (Apr 17, 10:00 PM)30.61 "Hg (Apr 17, 10:00 PM)
Low30 °F (Apr 7, 5:00 AM)19% (Apr 8, 6:00 PM)29.92 "Hg (Apr 16, 4:00 PM)
Average53 °F53%30.25 "Hg
* Reported Apr 7 4:00 AM — Apr 22 4:00 AM, Uster, Weather by CustomWeather, © 2015

Note: Actual official high and low records may vary slightly from our data, if they occured in-between our weather recording intervals... More about our weather records

Advertising

Uster weather history for previous 24 hours

 ConditionsComfort  
Time TempWeatherWind HumidityBarometerVisibility
4:00 AM
Wed, Apr 22
47 °FCool.1 mph63%30.34 "HgN/A
3:00 AM49 °FCool.3 mph58%30.35 "HgN/A
2:00 AM49 °FCool.2 mph58%30.36 "HgN/A
1:00 AM52 °FCool.1 mph54%30.35 "HgN/A
12:00 AM53 °FCool.1 mph50%30.35 "HgN/A
11:00 PM
Tue, Apr 21
55 °FCool.3 mph46%30.34 "HgN/A
10:00 PM57 °FRefreshingly cool.5 mph40%30.32 "HgN/A
9:00 PM58 °FRefreshingly cool.5 mph40%30.31 "HgN/A
8:00 PM62 °FMild.5 mph31%30.29 "HgN/A
7:00 PM65 °FMild.9 mph27%30.27 "HgN/A
6:00 PM67 °FMild.8 mph26%30.27 "HgN/A
5:00 PM67 °FMild.7 mph24%30.27 "HgN/A
4:00 PM67 °FMild.9 mph27%30.28 "HgN/A
3:00 PM66 °FMild.8 mph29%30.29 "HgN/A
2:00 PM64 °FPassing clouds.8 mph33%30.31 "HgN/A
1:00 PM63 °FMild.9 mph35%30.32 "HgN/A
12:00 PM61 °FRefreshingly cool.10 mph38%30.32 "HgN/A
11:00 AM58 °FRefreshingly cool.9 mph44%30.32 "HgN/A
10:00 AM53 °FCool.5 mph52%30.34 "HgN/A
9:00 AM50 °FCool.3 mph57%30.35 "HgN/A
8:00 AM47 °FCool.3 mph62%30.35 "HgN/A
7:00 AM45 °FQuite cool.3 mph64%30.35 "HgN/A
6:00 AM45 °FCool.7 mph63%30.32 "HgN/A
5:00 AM44 °FQuite cool.6 mph65%30.32 "HgN/A
Weather by CustomWeather, © 2015

See weather overviewHow to use our weather pages